Tracking 32136 objects as of 11-Nov-2025
HD Live streaming from Space Station
objects crossing your sky now

STARLINK-5035

Track STARLINK-5035 now!
10-day predictions
STARLINK-5035 is classified as:


NORAD ID: 53897
Int'l Code: 2022-119M
Perigee: 545.8 km
Apogee: 547.9 km
Inclination: 53.2 °
Period: 95.4 minutes
Semi major axis: 6917 km
RCS: Unknown
Launch date: September 24, 2022
Source: United States (US)
Launch site: AIR FORCE EASTERN TEST RANGE (AFETR)
Your satellite tracking list
Your tracking list is empty




NASA's NSSDC Master Catalog

Two Line Element Set (TLE):
1 53897U 22119M   25315.24569541  .00000960  00000-0  78408-4 0  9995
2 53897  53.2152 135.8305 0001484  88.5435 271.5727 15.08850913173807
Source of the keplerian elements: AFSPC